Satellite: PO-34
Catalog number: 25520
Epoch time:      08219.97814887
Element set:    0060
Inclination:      028.4596 deg
RA of node:       198.7335 deg
Eccentricity:    0.0005468
Arg of perigee:   121.5689 deg
Mean anomaly:     238.5439 deg
Mean motion:   15.17215276 rev/day
Decay rate:       2.41e-06 rev/day^2
Epoch rev:           54088
Checksum:              337

Satellite: ISS
Catalog number: 25544
Epoch time:      08219.81347098
Element set:    0001
Inclination:      051.6417 deg
RA of node:       116.2666 deg
Eccentricity:    0.0010257
Arg of perigee:   040.2184 deg
Mean anomaly:     004.5083 deg
Mean motion:   15.72844703 rev/day
Decay rate:      7.326e-05 rev/day^2
Epoch rev:           55650
Checksum:              275

Satellite: CO-58
Catalog number: 28895
Epoch time:      08219.70941827
Element set:    0090
Inclination:      098.0924 deg
RA of node:       112.5096 deg
Eccentricity:    0.0016723
Arg of perigee:   250.6202 deg
Mean anomaly:     109.3194 deg
Mean motion:   14.59687433 rev/day
Decay rate:        6.0e-07 rev/day^2
Epoch rev:           14785
Checksum:              323

Satellite: NCUBE2
Catalog number: 28897
Epoch time:      08219.25678095
Element set:    0619
Inclination:      098.0892 deg
RA of node:       111.9931 deg
Eccentricity:    0.0016105
Arg of perigee:   254.2183 deg
Mean anomaly:     105.7234 deg
Mean motion:   14.59859278 rev/day
Decay rate:        6.9e-07 rev/day^2
Epoch rev:           14007
Checksum:              330

Satellite: FALCON
Catalog number: 30776
Epoch time:      08219.39452734
Element set:    0378
Inclination:      035.4332 deg
RA of node:       208.9899 deg
Eccentricity:    0.0000886
Arg of perigee:   033.1793 deg
Mean anomaly:     326.8979 deg
Mean motion:   15.03028728 rev/day
Decay rate:       1.49e-06 rev/day^2
Epoch rev:           07770
Checksum:              335

Satellite: MAST
Catalog number: 31126
Epoch time:      08219.22158777
Element set:     391
Inclination:      098.0359 deg
RA of node:       281.6495 deg
Eccentricity:    0.0095037
Arg of perigee:   176.2534 deg
Mean anomaly:     183.9399 deg
Mean motion:   14.53439485 rev/day
Decay rate:       1.89e-06 rev/day^2
Epoch rev:            6928
Checksum:              346

Satellite: CAPE1
Catalog number: 31130
Epoch time:      08219.70494360
Element set:    0383
Inclination:      098.0356 deg
RA of node:       281.0070 deg
Eccentricity:    0.0103030
Arg of perigee:   177.8882 deg
Mean anomaly:     182.2762 deg
Mean motion:   14.51983329 rev/day
Decay rate:       1.74e-06 rev/day^2
Epoch rev:           06905
Checksum:              287

Satellite: CUTE1-7
Catalog number: 32785
Epoch time:      08219.17097512
Element set:    0125
Inclination:      097.9888 deg
RA of node:       278.9620 deg
Eccentricity:    0.0014653
Arg of perigee:   338.8338 deg
Mean anomaly:     021.2264 deg
Mean motion:   14.81380835 rev/day
Decay rate:        5.5e-07 rev/day^2
Epoch rev:           01480
Checksum:              323

Satellite: COMPASS
Catalog number: 32787
Epoch time:      08219.30245178
Element set:    0113
Inclination:      097.9865 deg
RA of node:       279.0449 deg
Eccentricity:    0.0015559
Arg of perigee:   339.2937 deg
Mean anomaly:     020.7645 deg
Mean motion:   14.81442219 rev/day
Decay rate:       -3.0e-08 rev/day^2
Epoch rev:           01482
Checksum:              312

Satellite: AAUSAT2
Catalog number: 32788
Epoch time:      08219.16004805
Element set:    0114
Inclination:      097.9871 deg
RA of node:       278.9189 deg
Eccentricity:    0.0014675
Arg of perigee:   342.9097 deg
Mean anomaly:     017.1618 deg
Mean motion:   14.81553184 rev/day
Decay rate:       2.59e-06 rev/day^2
Epoch rev:           01480
Checksum:              324

Satellite: DO-64
Catalog number: 32789
Epoch time:      08219.91131365
Element set:    0130
Inclination:      097.9897 deg
RA of node:       279.6876 deg
Eccentricity:    0.0015105
Arg of perigee:   336.7911 deg
Mean anomaly:     023.2617 deg
Mean motion:   14.81442365 rev/day
Decay rate:       -3.1e-07 rev/day^2
Epoch rev:           01491
Checksum:              318

Satellite: SEEDS
Catalog number: 32791
Epoch time:      08219.24438952
Element set:    0112
Inclination:      097.9885 deg
RA of node:       279.0014 deg
Eccentricity:    0.0015869
Arg of perigee:   337.5003 deg
Mean anomaly:     022.5505 deg
Mean motion:   14.81298323 rev/day
Decay rate:        2.1e-07 rev/day^2
Epoch rev:           01478
Checksum:              295

Satellite: CANX-2
Catalog number: 32797
Epoch time:      08218.60726649
Element set:    0058
Inclination:      097.9941 deg
RA of node:       278.4755 deg
Eccentricity:    0.0015646
Arg of perigee:   346.4586 deg
Mean anomaly:     013.6197 deg
Mean motion:   14.81907328 rev/day
Decay rate:      1.601e-05 rev/day^2
Epoch rev:           01340
Checksum:              332

